Location: Newark
(42.4040°N, 21.7420°E)
Time: 00:44:19
(UTC+00:00)

ISS - Visible Passes

Search period start: 15 December 2019 00:00
Search period end: 25 December 2019 00:00
Orbit: 411 x 421 km, 51.6° (Epoch: 15 December)

Date Brightness Start Highest point End Pass type
(mag) Time Alt. Az. Time Alt. Az. Time Alt. Az.
19 Dec -0.5 05:21:33 10° S 05:23:44 17° SE 05:25:57 10° E visible
21 Dec -2.5 05:19:58 10° SSW 05:23:08 45° SE 05:26:20 10° ENE visible
22 Dec -1.5 04:31:53 10° SSW 04:34:42 26° SE 04:37:31 10° ENE visible
23 Dec -0.8 03:44:17 10° S 03:46:19 15° SE 03:48:21 10° E visible
23 Dec -3.8 05:19:23 10° WSW 05:22:41 67° NNW 05:26:01 10° NE visible
24 Dec -3.6 04:31:38 16° SW 04:34:07 73° SE 04:37:26 10° ENE visible
